QBITO (42728 NORAD) Tracking and Keplerian Element Data

This shows tracking and keplerian element data for the satellite.

Feedback or suggestion? Click here.




ElementValue
Catalog42728
NameQBITO
Epoch Orbit6433
Epoch Day193.49504004
Epoch Year2018
RAAN226.5595
Inclination51.6363
Eccentricity0.000356
Argument of Perigee353.0976
Mean Anonmoly6.9973
Mean Motion15.72435116
Decay Rate0.00024506
L11 42728U 98067MH 18193.49504004 .00024506 00000-0 18405-3 0 9999
L22 42728 051.6363 226.5595 0003560 353.0976 006.9973 15.72435116064335

Live tracking and technical data element details for QBITO (NORAD 42728). QBITO can be tracked NOW for your location showing map with azimuth and elevation plus other details from your city location.

Track the satellite on the map from your city or location and see movement details for azimuth, elevation, latitude, longitude, range, height, and movement on the map or in text.







IsCatalogInMostPopularTable: catalog: 42728, numindb: 87
Update: records affected: 1



GetName: 42728 QBITO

Hit Count: updated at: Sun, 15 Jul 2018 22:55:58 GMT